吉利星座1组09星 (GEESAT-1 09)

导读

GEESAT 1-09是中国吉利科技集团旗下Geespace研制的低轨商业卫星,于北京时间2022年6月2日,在西昌卫星发射中心,随GEESAT 1系列首批九颗卫星一同发射入轨。它是中国首批模块化量产商业卫星,属于GEESAT星座组网星,将为智能驾驶提供高精度定位,同时支撑全球物联网覆盖建设,赋能低空经济、智慧海洋等多个新兴领域。

基本信息
目录编号:
52793
目录名称:
GEESAT 1-09
国际标识:
2022-058J
轨道中心:
EARTH
卫星名称:
吉利星座1组09星
卫星全名:
吉利星座1组09星 (GEESAT-1 09)
卫星状态:
在轨 (已飞行1562 天)
发射日期:
2022-06-02 UTC
国别 :
中国 (CN)
星等 :
--
该卫星已列入 空间交会检测服务 Space Conjunction Data Service (SCDS) ,当前飞行风险评估等级: 无高风险
轨道信息
数据来源 国际轨道数据 AOE轨道数据
星历时间 2026-09-11T12:48:01+0800
9小时前
查看轨道信息
2026-09-10T21:00:00+0800
1天前
查看轨道信息
半长轴 6941.591km 6941.607km
偏心率 0.0006623 0.0006343
轨道倾角 49.997° 49.996°
近地点辐角 146.734° 141.580°
升交点赤经 132.298° 135.436°
平近点角 213.403° 258.250°
近地点 558.856km 559.066km
远地点 568.052km 567.874km
周期 95.929分钟 95.929分钟
每日圈数 15.011161 15.01111
详细信息
平衡模式:
三轴稳定
覆盖范围:
全球
运营商:
时空道宇科技有限公司
运营商所在国:
中国
制造商(研发单位):
时空道宇科技有限公司
制造商所在国:
中国
使用方式:
暂无
卫星简介
吉利星座(GeeSAT)也称“吉利未来出行星座”,由吉利旗下时空道宇自主研发,布局硬核科技生态,赋能智慧出行、无人系统、智慧城市等领域,并将全面提升吉利控股旗下极氪、领克、远程新能源商用车等品牌的用户智能出行体验。通过“吉利未来出行星座”建设,吉利控股集团将构建天地一体化高精时空信息系统。该卫星仍在工作。
2D轨道图
3D轨道图
轨道高度分析图
轨道倾角分析图
轨道综合分析图
查看轨道综合分析图
与全量物体交会距离演化趋势
与全量物体交会风险概率演化趋势